Tracking 17925 objects as of 22-January-2017
HD Live streaming from Space Station
objects crossing your sky now

NAVSTAR 28 (USA 85)

Track NAVSTAR 28 (USA 85) now!
NAVSTAR 28 (USA 85) is classified as:


NORAD ID: 22231
Int'l Code: 1992-079A
Perigee: 19,965.7 km
Apogee: 20,414.2 km
Inclination: 55.3 °
Period: 718.0 minutes
Semi major axis: 26560 km
RCS: 3.981 m2 (large)
Launch date: November 22, 1992
Source: United States (US)
Launch site: AIR FORCE EASTERN TEST RANGE (AFETR)
PRN:
Your satellite tracking list
Your tracking list is empty





NASA's NSSDC Master Catalog

Two Line Element Set (TLE):
1 22231U 92079A   17022.45782920  .00000080  00000-0  00000+0 0  9993
2 22231  55.3302 232.7392 0084414 307.4457  52.6816  2.00556918177064
Source of the keplerian elements: AFSPC